Regional Weather Roundup
Issued by NWS Newport/Morehead, NC

Current Version | Previous Version | Text Only | Print | Product List | Glossary On
Versions: 1 2 3 4 5 6 7 8 9 10 11 12 13 14 15 16 17 18 19 20 21 22 23 24 25 26 27 28 29 30 31 32 33 34 35 36 37 38 39 40 41 42 43 44 45 46 47 48 49 50
000
ASUS42 KMHX 250213
RWRMHX
WEATHER ROUNDUP FOR EASTERN NORTH CAROLINA
NATIONAL WEATHER SERVICE NEWPORT/MOREHEAD CITY NC
1000 PM EDT WED AUG 24 2016

NOTE: "FAIR" INDICATES FEW OR NO CLOUDS BELOW 12,000 FEET
WITH NO SIGNIFICANT WEATHER AND/OR OBSTRUCTIONS TO VISIBILITY

NCZ015>017-031-032-045>047-102-103-250300-
NORTH COAST

CITY           SKY/WX    TMP DP  RH WIND       PRES   REMARKS
EDENTON        PTCLDY    73  73 100 CALM      30.22S
ELIZABETH CITY CLEAR     74  69  85 E5        30.22S
KITTY HAWK     PTCLDY    74  71  90 CALM      30.21S
MANTEO         CLEAR     76  69  79 CALM      30.22S

$$

NCZ045>047-081-094-103-104-250300-
CENTRAL COAST

CITY           SKY/WX    TMP DP  RH WIND       PRES   REMARKS
FRISCO         CLEAR     75  68  78 E5        30.21R

$$

NCZ095-097-098-100-101-250300-
SOUTHERN COAST

CITY           SKY/WX    TMP DP  RH WIND       PRES   REMARKS
BEAUFORT       PTCLDY    75  73  93 NE3       30.20R
CEDAR ISLAND   NOT AVBL
JACKSONVILLE   PTCLDY    78  67  68 NE9       30.19S
PINEY ISLAND   NOT AVBL
WILMINGTON     CLOUDY    74  67  78 N5        30.20R


$$

NCZ011>013-027>030-043-044-078>080-089-090>093-098-250300-
COASTAL PLAIN

CITY           SKY/WX    TMP DP  RH WIND       PRES   REMARKS
AHOSKIE        CLEAR     67  65  96 CALM      30.22S
CLINTON        PTCLDY    71  68  91 CALM      30.21S
ELIZABETHTOWN  PTCLDY    72  64  77 CALM      30.20S
GOLDSBORO      CLOUDY    73  68  86 E2        30.19R
GREENVILLE     PTCLDY    70  66  88 CALM      30.22S
HAVELOCK       MOCLDY    77  71  82 E5        30.20S
KENANSVILLE    NOT AVBL
KINSTON        NOT AVBL
NEW BERN       CLOUDY    76  70  82 NE5       30.21S
RICHLANDS      MOCLDY    71  68  90 CALM      30.20S
ROCKY MOUNT    CLEAR     69  67  93 CALM      30.21S
WASHINGTON     PTCLDY    72  66  82 E3        30.21S
WHITEVILLE     PTCLDY    72  67  84 CALM      30.20R

$$

AMZ130-135-150-152-154-156-158-170-250-252-270-ANZ085-086-088-633-658-670-250300-
MARINE OBSERVATIONS

STATION/POSITION TIME  TEMP    WIND        PRES    WAVE   SWELL
                       AIR SEA DIR/SP/G            HT/PER HT/PER
                 (UTC) (F)     (DEG/KT/KT) (MB)    (FT/S) (FT/S)
CHESAPEAKE LIGHT NOT AVBL
64 E VA BEACH    0150   78 81  110/  6/  8 1023.3    3/11   2/11
DUCK             0100   78 79   70/  7/  8 1022.6
2 E DUCK         0111      78                N/A     2/11   2/11
OREGON INLET     0100   77 79  100/  3/  3 1023.0
13E OREGON INLT  0100      79                N/A     3/11   3/11
HATTERAS CG      0100   78 80   70/  4/  6 1022.5
DIAMOND BUOY     0150   81 84   80/ 14/ 16 1022.9    3/11   2/11
CAPE LOOKOUT     0200   81     100/ 13/ 14 1022.2
BEAUFORT LAB     0100   77 81   20/  4/  5 1021.8
30 SE NEW RVR IN 0108   80 84  100/ 14/ 17 1021.9
30 SE NEW RVR IN 0125      84                N/A     3/11
27 SE WRIGHTSVLE 0108   81 84   50/ 10/ 14 1021.8
5 SE WRIGHTSVLE  0108   81 83   50/ 12/ 16 1023.0
225 S CAPE HAT   0150   82 85   60/ 17/ 19 1019.7    4/10   2/10
41 SE CHARLESTON 0150   81 84   60/ 12/ 14 1021.3    3/ 7   2/ 7

$$




USA.gov is the U.S. government's official web portal to all federal, state and local government web resources and services.